{"data":{"norad_id":61906,"epoch":"2026-09-22T23:07:14.990880Z","epoch_age_seconds":89683,"freshness":"FRESH","line1":"1 61906U 24205N   26265.96336795  .00018326  00000+0  43563-3 0  9997","line2":"2 61906  97.4101 347.9457 0008177  50.9684 309.2290 15.41680044103923","mean_motion":15.41680044,"eccentricity":0.0008177,"inclination_deg":97.4101,"raan_deg":347.9457,"arg_perigee_deg":50.9684,"mean_anomaly_deg":309.229,"bstar":0.00043563,"rev_number":10392,"period_min":93.404594916064,"perigee_km":435.57447604976,"apogee_km":446.72673900311,"semimajor_km":6819.2876075264,"source":"CELESTRAK","updated_at":"2026-09-23T09:00:21.100388Z"}}